This is the latest recevied weather packets stored in our database for station/object AI9F. If no packets are shown the sender has not sent any weather packets the latest 10 day(s).
| Time | Temp. | Humidity | Pressure | Rain* | Wind** | Luminosity | Snow |
|---|---|---|---|---|---|---|---|
| 1777924871 | 21.11° C | 61% | 1006.9 hPa | 0 mm | - | 36 W/m² | - |
| 1777924567 | 21.67° C | 62% | 1007.6 hPa | 0 mm | - | 30 W/m² | - |
| 1777924263 | 21.67° C | 56% | 1007.7 hPa | 0 mm | - | 37 W/m² | - |
| 1777923960 | 21.67° C | 58% | 1007.9 hPa | 0 mm | - | 48 W/m² | - |
| 1777923655 | 22.22° C | 54% | 1007.9 hPa | 0 mm | - | 53 W/m² | - |
| 1777923352 | 22.22° C | 54% | 1007.8 hPa | 0 mm | - | 60 W/m² | - |
| 1777923051 | 22.22° C | 54% | 1007.8 hPa | 0 mm | - | 66 W/m² | - |
| 1777922749 | 22.78° C | 52% | 1007.8 hPa | 0 mm | - | 78 W/m² | - |
| 1777922447 | 22.78° C | 51% | 1007.5 hPa | 0 mm | - | 94 W/m² | - |
| 1777922144 | 22.78° C | 51% | 1007.5 hPa | 0 mm | - | 112 W/m² | - |
| 1777921840 | 22.78° C | 51% | 1007.3 hPa | 0 mm | - | 109 W/m² | - |
| 1777921537 | 22.78° C | 53% | 1007.2 hPa | 0 mm | - | 119 W/m² | - |
| 1777921233 | 22.22° C | 56% | 1007 hPa | 0 mm | - | 103 W/m² | - |
| 1777920930 | 22.22° C | 63% | 1005.9 hPa | 0 mm | - | 128 W/m² | - |
| 1777920626 | 22.22° C | 58% | 1006.3 hPa | 0 mm | - | 132 W/m² | - |
| 1777920322 | 22.78° C | 55% | 1006.3 hPa | 0 mm | - | 73 W/m² | - |
| 1777920018 | 22.78° C | 53% | 1006.6 hPa | 0 mm | - | 71 W/m² | - |
| 1777919715 | 22.78° C | 55% | 1006.5 hPa | 0 mm | - | 85 W/m² | - |
| 1777919413 | 22.78° C | 54% | 1006.4 hPa | 0 mm | - | 105 W/m² | - |
| 1777919109 | 23.33° C | 56% | 1006.7 hPa | 0 mm | - | 130 W/m² | - |
| 1777918807 | 23.33° C | 54% | 1006.4 hPa | 0 mm | - | 165 W/m² | - |
| 1777918504 | 23.33° C | 53% | 1006.6 hPa | 0 mm | - | 168 W/m² | - |
| 1777918203 | 23.33° C | 50% | 1006.9 hPa | 0 mm | - | 212 W/m² | - |
| 1777917901 | 23.89° C | 55% | 1006.9 hPa | 0 mm | - | 228 W/m² | - |
| 1777917599 | 23.89° C | 50% | 1006.7 hPa | 0 mm | - | 291 W/m² | - |
* Rain latest hour (hover to see other rain measurements)
** Current wind speed in m/s (hover to see current wind gust speed)